When you browse on this site, cookies collect data to enhance your experience and personalize the content and advertising you see.
Visit our Privacy Policy to learn more. By continuing to use the site, you agree to this use of cookies and data.
  • In United Kingdom
  • List of Countries
  • For 7 days
  • Water Temperature
  • Satellite Maps
  • Weather Map
  • Weather Widgets
  • user-avatar
    Login

    Hourly Weather Klagenfurt

    Today, 24 April, Wednesday

    Time Temperature Precipitation Wind Pressure Humidity
    00:00 +8°C° 0.8 mm 1 mps 685 mmHg 97%
    01:00 +8°C° 0 mm 2 mps 685 mmHg 98%
    02:00 +9°C° 0.9 mm 1 mps 685 mmHg 98%
    03:00 +9°C° 0.9 mm 1 mps 685 mmHg 97%
    04:00 +9°C° 0.9 mm 1 mps 685 mmHg 97%
    05:00 +9°C° 1.1 mm 1 mps 686 mmHg 97%
    06:00 +10°C° 1.1 mm 1 mps 686 mmHg 97%
    07:00 +9°C° 0 mm 2 mps 686 mmHg 97%
    08:00 +9°C° 0.9 mm 2 mps 687 mmHg 95%
    09:00 +10°C° 0.9 mm 2 mps 687 mmHg 94%
    10:00 +10°C° 0.9 mm 2 mps 687 mmHg 93%
    11:00 +12°C° 0.3 mm 2 mps 687 mmHg 89%
    12:00 +13°C° 0.3 mm 2 mps 688 mmHg 86%
    13:00 +14°C° 0.3 mm 2 mps 688 mmHg 83%
    14:00 +13°C° 0.2 mm 3 mps 688 mmHg 83%
    15:00 +13°C° 0.2 mm 3 mps 688 mmHg 84%
    16:00 +12°C° 0.2 mm 3 mps 688 mmHg 84%
    17:00 +13°C° 0.1 mm 2 mps 688 mmHg 87%
    18:00 +12°C° 0.1 mm 2 mps 688 mmHg 90%
    19:00 +10°C° 0.1 mm 2 mps 688 mmHg 93%
    20:00 +10°C° 0.1 mm 2 mps 688 mmHg 94%
    21:00 +10°C° 0.1 mm 2 mps 688 mmHg 95%
    22:00 +9°C° 0.1 mm 2 mps 688 mmHg 96%
    23:00 +9°C° 0.1 mm 2 mps 689 mmHg 96%

    Tomorrow, 25 April, Thursday

    Time Temperature Precipitation Wind Pressure Humidity
    00:00 +10°C° 0.1 mm 1 mps 689 mmHg 96%
    01:00 +10°C° 0.1 mm 1 mps 689 mmHg 96%
    02:00 +10°C° 0.1 mm 1 mps 689 mmHg 96%
    03:00 +10°C° 0.1 mm 1 mps 690 mmHg 97%
    04:00 +10°C° 0.1 mm 1 mps 690 mmHg 97%
    05:00 +9°C° 0 mm 2 mps 690 mmHg 95%
    06:00 +10°C° 0 mm 2 mps 690 mmHg 93%
    07:00 +10°C° 0 mm 2 mps 690 mmHg 91%
    08:00 +12°C° 0 mm 2 mps 690 mmHg 84%
    09:00 +14°C° 0 mm 2 mps 691 mmHg 78%
    10:00 +14°C° 0 mm 3 mps 691 mmHg 71%
    11:00 +16°C° 0 mm 3 mps 691 mmHg 65%
    12:00 +17°C° 0 mm 3 mps 691 mmHg 58%
    13:00 +18°C° 0 mm 4 mps 691 mmHg 52%
    14:00 +18°C° 0 mm 4 mps 691 mmHg 54%
    15:00 +18°C° 0 mm 4 mps 691 mmHg 55%
    16:00 +17°C° 0 mm 4 mps 690 mmHg 57%
    17:00 +16°C° 0 mm 3 mps 690 mmHg 67%
    18:00 +14°C° 0 mm 2 mps 690 mmHg 77%
    19:00 +12°C° 0 mm 2 mps 689 mmHg 86%
    20:00 +12°C° 0 mm 2 mps 689 mmHg 89%
    21:00 +10°C° 0 mm 2 mps 690 mmHg 91%
    22:00 +10°C° 0 mm 2 mps 690 mmHg 94%
    23:00 +10°C° 0 mm 1 mps 689 mmHg 95%

    Day after tomorrow, 26 April, Friday

    Time Temperature Precipitation Wind Pressure Humidity
    00:00 +10°C° 0 mm 1 mps 689 mmHg 95%
    01:00 +10°C° 0 mm 1 mps 689 mmHg 96%
    02:00 +10°C° 0 mm 1 mps 689 mmHg 96%
    03:00 +10°C° 0 mm 1 mps 688 mmHg 96%
    04:00 +9°C° 0 mm 1 mps 688 mmHg 96%
    05:00 +10°C° 0 mm 1 mps 688 mmHg 93%
    06:00 +11°C° 0 mm 1 mps 688 mmHg 90%
    07:00 +12°C° 0 mm 1 mps 688 mmHg 87%
    08:00 +13°C° 0 mm 2 mps 688 mmHg 82%
    09:00 +14°C° 0 mm 2 mps 688 mmHg 77%
    10:00 +15°C° 0 mm 2 mps 688 mmHg 72%
    11:00 +16°C° 0.1 mm 3 mps 688 mmHg 71%
    12:00 +16°C° 0.1 mm 3 mps 688 mmHg 70%
    13:00 +17°C° 0.1 mm 4 mps 688 mmHg 68%
    14:00 +15°C° 0.2 mm 4 mps 688 mmHg 71%
    15:00 +14°C° 0.2 mm 3 mps 687 mmHg 74%
    16:00 +13°C° 0.2 mm 3 mps 687 mmHg 77%
    17:00 +12°C° 0.2 mm 3 mps 687 mmHg 82%
    18:00 +12°C° 0.2 mm 2 mps 687 mmHg 86%
    19:00 +10°C° 0.2 mm 2 mps 687 mmHg 91%
    20:00 +10°C° 0 mm 2 mps 688 mmHg 92%
    21:00 +10°C° 0 mm 1 mps 688 mmHg 94%
    22:00 +9°C° 0 mm 1 mps 688 mmHg 96%
    23:00 +8°C° 0.2 mm 1 mps 688 mmHg 96%

    27 April, Saturday

    Time Temperature Precipitation Wind Pressure Humidity
    00:00 +8°C° 0.2 mm 1 mps 688 mmHg 96%
    01:00 +7°C° 0.2 mm 1 mps 688 mmHg 97%
    02:00 +7°C° 0.3 mm 1 mps 688 mmHg 96%
    03:00 +7°C° 0.3 mm 1 mps 688 mmHg 96%
    04:00 +6°C° 0.3 mm 1 mps 688 mmHg 95%
    05:00 +7°C° 0.3 mm 1 mps 688 mmHg 92%
    06:00 +7°C° 0.3 mm 1 mps 688 mmHg 90%
    07:00 +7°C° 0.3 mm 1 mps 689 mmHg 87%
    08:00 +9°C° 0.2 mm 1 mps 689 mmHg 77%
    09:00 +11°C° 0.2 mm 1 mps 689 mmHg 68%
    10:00 +13°C° 0.2 mm 1 mps 690 mmHg 58%
    11:00 +14°C° 0.4 mm 1 mps 690 mmHg 56%
    12:00 +15°C° 0.4 mm 0 mps 689 mmHg 53%
    13:00 +16°C° 0.4 mm 0 mps 689 mmHg 50%
    14:00 +15°C° 0.3 mm 0 mps 689 mmHg 51%
    15:00 +16°C° 0.3 mm 1 mps 688 mmHg 52%
    16:00 +15°C° 0.3 mm 1 mps 688 mmHg 53%
    17:00 +13°C° 0.3 mm 1 mps 688 mmHg 61%
    18:00 +11°C° 0.3 mm 1 mps 688 mmHg 70%
    19:00 +9°C° 0.3 mm 1 mps 687 mmHg 79%
    20:00 +8°C° 0.4 mm 0 mps 688 mmHg 81%
    21:00 +8°C° 0.4 mm 0 mps 688 mmHg 82%
    22:00 +7°C° 0.4 mm 0 mps 688 mmHg 84%
    23:00 +7°C° 0.9 mm 0 mps 688 mmHg 87%

    28 April, Sunday

    Time Temperature Precipitation Wind Pressure Humidity
    00:00 +8°C° 0.9 mm 1 mps 688 mmHg 89%
    01:00 +7°C° 0.9 mm 1 mps 688 mmHg 92%
    02:00 +7°C° 1.5 mm 1 mps 688 mmHg 93%
    03:00 +7°C° 1.5 mm 1 mps 688 mmHg 94%
    04:00 +6°C° 1.5 mm 1 mps 688 mmHg 95%
    05:00 +6°C° 1.9 mm 1 mps 688 mmHg 95%
    06:00 +6°C° 1.9 mm 1 mps 688 mmHg 95%
    07:00 +5°C° 1.9 mm 2 mps 688 mmHg 94%
    08:00 +5°C° 2.3 mm 2 mps 688 mmHg 93%
    09:00 +5°C° 2.3 mm 2 mps 688 mmHg 92%
    10:00 +6°C° 2.3 mm 2 mps 688 mmHg 90%
    11:00 +6°C° 1.7 mm 2 mps 688 mmHg 90%
    12:00 +7°C° 1.7 mm 1 mps 688 mmHg 90%
    13:00 +8°C° 1.7 mm 1 mps 688 mmHg 90%
    14:00 +8°C° 0.9 mm 1 mps 688 mmHg 89%
    15:00 +8°C° 0.9 mm 1 mps 688 mmHg 89%
    16:00 +7°C° 0.9 mm 2 mps 687 mmHg 88%
    17:00 +7°C° 0.4 mm 2 mps 688 mmHg 89%
    18:00 +7°C° 0.4 mm 2 mps 688 mmHg 90%
    19:00 +6°C° 0.4 mm 2 mps 688 mmHg 90%
    20:00 +6°C° 0 mm 2 mps 688 mmHg 90%
    21:00 +5°C° 0 mm 2 mps 688 mmHg 90%
    22:00 +4°C° 0 mm 2 mps 689 mmHg 91%
    23:00 +4°C° 0 mm 2 mps 689 mmHg 90%

    29 April, Monday

    Time Temperature Precipitation Wind Pressure Humidity
    00:00 +4°C° 0 mm 2 mps 688 mmHg 89%
    01:00 +3°C° 0 mm 2 mps 688 mmHg 88%
    02:00 +3°C° 0 mm 2 mps 688 mmHg 88%
    03:00 +3°C° 0 mm 2 mps 688 mmHg 87%
    04:00 +3°C° 0 mm 2 mps 688 mmHg 87%
    05:00 +4°C° 0 mm 2 mps 688 mmHg 85%
    06:00 +5°C° 0 mm 2 mps 689 mmHg 83%
    07:00 +6°C° 0 mm 2 mps 689 mmHg 80%
    08:00 +8°C° 0 mm 2 mps 689 mmHg 72%
    09:00 +10°C° 0 mm 3 mps 689 mmHg 63%
    10:00 +12°C° 0 mm 3 mps 690 mmHg 54%
    11:00 +13°C° 0 mm 3 mps 690 mmHg 51%
    12:00 +15°C° 0 mm 2 mps 689 mmHg 49%
    13:00 +16°C° 0 mm 2 mps 689 mmHg 46%
    14:00 +15°C° 0.3 mm 2 mps 689 mmHg 50%
    15:00 +15°C° 0.3 mm 2 mps 689 mmHg 54%
    16:00 +14°C° 0.3 mm 1 mps 688 mmHg 58%
    17:00 +12°C° 0.4 mm 1 mps 688 mmHg 65%
    18:00 +11°C° 0.4 mm 1 mps 688 mmHg 72%
    19:00 +8°C° 0.4 mm 0 mps 688 mmHg 80%
    20:00 +8°C° 0 mm 1 mps 688 mmHg 81%
    21:00 +7°C° 0 mm 1 mps 688 mmHg 83%
    22:00 +6°C° 0 mm 1 mps 688 mmHg 84%
    23:00 +6°C° 0 mm 1 mps 688 mmHg 85%
    Show more